Regional Weather Roundup
Issued by NWS Raleigh/Durham, NC

Home | Current Version | Previous Version | Text Only | Print | Product List | Glossary On
Versions: 1 2 3 4 5 6 7 8 9 10 11 12 13 14 15 16 17 18 19 20 21 22 23 24 25 26 27 28 29 30 31 32 33 34 35 36 37 38 39 40 41 42 43 44 45 46 47 48 49 50
000
ASUS42 KRAH 231610
RWRRAH
NORTH CAROLINA WEATHER ROUNDUP
NATIONAL WEATHER SERVICE RALEIGH NC
1200 PM EDT SAT MAY 23 2015

NOTE: "FAIR" INDICATES FEW OR NO CLOUDS BELOW 12,000 FEET WITH NO
SIGNIFICANT WEATHER AND/OR OBSTRUCTIONS TO VISIBILITY.

NCZ001-053-055-056-065-067-231700-
WESTERN NORTH CAROLINA

CITY           SKY/WX    TMP DP  RH WIND       PRES   REMARKS
ASHEVILLE      SUNNY     70  40  33 CALM      30.46S
JEFFERSON      SUNNY     65  33  30 S3        30.48S
MORGANTON      SUNNY     73  38  28 S6        30.49S
HICKORY        SUNNY     73  41  31 VRB3      30.44F
RUTHERFORDTON  SUNNY     74  42  31 SE5       30.45S
MOUNT AIRY     SUNNY     74  48  40 E13       30.46S
BOONE          SUNNY     66  35  31 CALM      30.49S
$$

NCZ021-022-025-041-071-084-088-231700-
CENTRAL NORTH CAROLINA

CITY           SKY/WX    TMP DP  RH WIND       PRES   REMARKS
CHARLOTTE      MOSUNNY   76  38  25 VRB5G16   30.43S
GREENSBORO     MOSUNNY   72  48  42 E9        30.45S
WINSTON-SALEM  SUNNY     72  48  42 E6        30.46S
RALEIGH-DURHAM MOSUNNY   72  47  40 VRB6      30.45F
FORT BRAGG     SUNNY     75  51  42 E9        30.42R
FAYETTEVILLE   SUNNY     76  48  37 NE9       30.42S
BURLINGTON     SUNNY     71  48  43 N7        30.45S
LAURINBURG     SUNNY     78  46  32 NE9       30.42S
$$

NCZ011-015-027-028-043-044-047-080-103-231700-
NORTHEASTERN NORTH CAROLINA

CITY           SKY/WX    TMP DP  RH WIND       PRES   REMARKS
ROCKY MT-WILSO SUNNY     73  45  36 E6        30.44S
GREENVILLE     SUNNY     73  52  46 E6        30.43S
WASHINGTON     SUNNY     73  51  46 E9        30.43S
ELIZABETH CITY SUNNY     70  43  37 NE10      30.45R
MANTEO         SUNNY     66  47  48 NE13      30.44S
CAPE HATTERAS  SUNNY     71  53  52 NE8G16    30.42S
$$

NCZ078-087-090-091-093-098-101-231700-
SOUTHEASTERN NORTH CAROLINA

CITY           SKY/WX    TMP DP  RH WIND       PRES   REMARKS
LUMBERTON      SUNNY     78  48  34 E8        30.41S
GOLDSBORO      SUNNY    N/A N/A N/A MISG        N/A
KINSTON        SUNNY     75  52  43 NE10      30.43S
KENANSVILLE    SUNNY     74  47  38 N6        30.44R
NEW BERN       SUNNY     77  52  41 N7        30.42S
CHERRY POINT   SUNNY     77  52  41 NE5       30.42S
BEAUFORT       SUNNY     76  51  41 NE8       30.41R
JACKSONVILLE   SUNNY     76  47  35 E6        30.41R
WILMINGTON     SUNNY     76  47  35 E7        30.41R
$$



USA.gov is the U.S. government's official web portal to all federal, state and local government web resources and services.